Location: Biltmore Gardens
(41.6070°N, 83.4666°W)
Time: 14:28:49
(UTC+00:00)

IRS-1C - Pass Details

Date: 14 July 2020
Orbit: 815 x 817 km, 98.8° (Epoch: 04 August)

Event Time Altitude Azimuth Distance (km) Brightness Sun altitude
Rises 07:57:07 0° 16° (NNE) 3,352 8.7 -19.3°
Reaches altitude 10° 07:59:30 10° 20° (NNE) 2,415 7.7 -19.0°
Maximum altitude 08:04:48 66° 102° (ESE) 891 4.4 -18.4°
Enters shadow 08:08:02 24° 179° (S) 1,630 5.2 -18.1°
